EW3708 Weather Reports


time (UTC)temp
F
wind
direction
speed
knots
gust
knots
rain 1hr
in
rain 24hr
in
rain mn
in
humidity
%
barometer
mb
20260905163013 72 293 1.7 4.3 0.00 0.00 0.00 62 1010.9
20260905161511 71 220 0.9 3.5 0.00 0.00 0.00 66 1011.1
20260905160013 70 324 0.0 3.5 0.00 0.00 0.00 72 1011.1
20260905154504 69 236 0.9 3.5 0.00 0.00 0.00 70 1011.0
20260905153003 68 279 0.9 3.5 0.00 0.00 0.00 73 1010.9
20260905151502 68 268 0.9 3.5 0.00 0.00 0.00 72 1010.9
20260905150051 68 305 0.9 3.5 0.00 0.00 0.00 74 1010.9
20260905144552 67 275 0.9 6.1 0.00 0.00 0.00 74 1010.9
20260905143047 67 77 0.9 6.1 0.00 0.00 0.00 77 1010.8
20260905141607 66 308 0.9 3.5 0.00 0.00 0.00 77 1010.8
20260905140054 66 297 1.7 6.1 0.00 0.00 0.00 77 1010.9
20260905134547 65 331 0.9 2.6 0.00 0.00 0.00 80 1010.7
20260905133051 65 167 1.7 3.5 0.00 0.00 0.00 80 1010.7
20260905131552 64 278 0.0 2.6 0.00 0.00 0.00 84 1010.6
20260905130037 63 261 0.0 2.6 0.00 0.00 0.00 87 1010.5
20260905124536 62 197 0.9 2.6 0.00 0.00 0.00 88 1010.6
20260905123034 61 268 0.9 2.6 0.00 0.00 0.00 92 1010.8
20260905121534 61 251 0.0 1.7 0.00 0.00 0.00 93 1010.8
20260905120037 60 251 0.0 0.9 0.00 0.00 0.00 92 1010.8
20260905114555 60 252 0.0 0.0 0.00 0.00 0.00 92 1010.6
20260905113031 60 252 0.0 0.9 0.00 0.00 0.00 91 1010.5
20260905111531 60 252 0.0 0.0 0.00 0.00 0.00 91 1010.4
20260905110032 61 252 0.0 0.9 0.00 0.00 0.00 91 1010.3
20260905104533 61 252 0.0 1.7 0.00 0.00 0.00 91 1010.1
20260905103034 60 252 0.0 1.7 0.00 0.00 0.00 91 1009.8
20260905101529 60 252 0.9 1.7 0.00 0.00 0.00 92 1009.6
20260905100029 60 252 0.0 0.0 0.00 0.00 0.00 91 1009.6
20260905094525 61 252 0.0 0.0 0.00 0.00 0.00 91 1009.4
20260905093029 61 252 0.0 0.0 0.00 0.00 0.00 91 1009.4
20260905091523 61 252 0.0 0.9 0.00 0.00 0.00 91 1009.3
20260905090022 62 252 0.0 0.0 0.00 0.00 0.00 91 1009.3
20260905084519 62 252 0.0 0.0 0.00 0.00 0.00 90 1009.4
20260905083018 62 252 0.0 0.0 0.00 0.00 0.00 91 1009.4
20260905081517 63 252 0.0 0.0 0.00 0.00 0.00 91 1009.6
20260905080021 63 252 0.0 0.0 0.00 0.00 0.00 91 1009.7
20260905074517 63 252 0.0 0.0 0.00 0.00 0.00 91 1009.8
20260905073012 63 252 0.0 0.0 0.00 0.00 0.00 91 1009.7
20260905071511 63 252 0.0 0.0 0.00 0.00 0.00 90 1009.8
20260905070008 64 252 0.0 0.0 0.00 0.00 0.00 91 1009.9
20260905064507 64 252 0.0 0.0 0.00 0.00 0.00 91 1009.9
20260905063005 64 252 0.0 0.0 0.00 0.00 0.00 91 1010.0
20260905061502 64 252 0.0 0.0 0.00 0.00 0.00 91 1010.2
20260905060006 64 252 0.0 0.0 0.00 0.00 0.00 91 1010.2
20260905054604 64 252 0.0 0.0 0.00 0.00 0.00 90 1010.4
20260905053059 65 252 0.0 0.0 0.00 0.00 0.00 90 1010.6
20260905051609 65 252 0.0 0.0 0.00 0.00 0.00 91 1010.7
20260905050105 65 252 0.0 0.0 0.00 0.00 0.00 91 1011.0
20260905044558 65 252 0.0 0.0 0.00 0.03 0.00 90 1011.0
20260905043052 65 252 0.0 0.0 0.00 0.03 0.00 90 1010.9
20260905041552 65 252 0.0 0.0 0.00 0.03 0.00 90 1011.0
20260905040055 65 252 0.0 0.0 0.00 0.03 0.00 90 1010.9
20260905034605 65 252 0.0 0.9 0.00 0.06 0.03 90 1010.8
20260905033102 65 252 0.0 0.0 0.00 0.06 0.03 89 1010.5
20260905031548 65 252 0.0 0.9 0.00 0.06 0.03 89 1010.7
20260905030047 65 252 0.0 0.0 0.00 0.06 0.03 89 1010.8
20260905024550 65 252 0.0 0.0 0.00 0.06 0.03 89 1010.7
20260905023120 65 252 0.0 0.0 0.00 0.06 0.03 89 1010.8
20260905021545 65 252 0.0 0.0 0.00 0.06 0.03 88 1010.8
20260905020044 65 252 0.0 0.0 0.00 0.06 0.03 87 1010.8
20260905014541 66 252 0.0 0.9 0.00 0.21 0.03 86 1010.8
20260905013040 66 252 0.0 0.9 0.00 0.21 0.03 85 1010.7
20260905011546 67 252 0.0 0.0 0.00 0.21 0.03 84 1010.8
20260905010042 67 252 0.0 0.0 0.00 0.21 0.03 85 1010.7
20260905004536 68 252 0.0 0.0 0.00 0.21 0.03 84 1010.9
20260905003036 68 252 0.0 0.0 0.00 0.21 0.03 85 1010.6
20260905001536 68 252 0.0 0.0 0.00 0.21 0.03 84 1010.5
20260905000035 69 252 0.0 0.9 0.00 0.21 0.03 82 1010.3
20260904234536 69 252 0.0 0.0 0.00 0.21 0.03 81 1010.4
20260904233034 70 252 0.0 0.0 0.00 0.21 0.03 79 1010.3
20260904231535 71 252 0.0 0.0 0.00 0.21 0.03 79 1010.1
20260904230033 71 252 0.0 0.0 0.00 0.21 0.03 78 1009.9
20260904224532 72 252 0.0 0.9 0.00 0.21 0.03 75 1010.0
20260904223034 73 252 0.0 0.9 0.00 0.21 0.03 74 1010.2
20260904221531 73 252 0.0 1.7 0.00 0.21 0.03 74 1010.5
20260904220058 73 252 0.0 1.7 0.00 0.21 0.03 72 1010.6
20260904214530 74 252 0.0 1.7 0.00 0.21 0.03 72 1010.8
20260904213034 74 251 0.0 2.6 0.00 0.21 0.03 73 1010.6
20260904211529 74 214 0.0 2.6 0.00 0.21 0.03 71 1010.1
20260904210035 74 209 0.0 1.7 0.00 0.21 0.03 75 1010.1
20260904204527 75 282 0.0 0.0 0.00 0.21 0.03 72 1010.1
20260904203035 75 282 0.0 2.6 0.00 0.21 0.03 72 1010.2
20260904201526 76 282 0.9 4.3 0.00 0.21 0.03 69 1010.3
20260904200034 76 188 0.9 2.6 0.00 0.21 0.03 69 1010.6
20260904194543 76 226 0.9 3.5 0.00 0.21 0.03 66 1010.9
20260904193023 77 304 0.9 3.5 0.00 0.21 0.03 68 1010.9
20260904191535 77 302 0.9 3.5 0.00 0.21 0.03 67 1010.9
20260904190021 78 310 1.7 3.5 0.00 0.21 0.03 65 1011.0
20260904184519 77 310 0.9 3.5 0.00 0.21 0.03 67 1011.1
20260904183016 77 261 0.9 3.5 0.00 0.21 0.03 70 1011.4
20260904181515 76 269 0.9 2.6 0.00 0.21 0.03 73 1011.4
20260904180013 76 286 1.7 3.5 0.00 0.21 0.03 71 1011.4
20260904174521 76 319 0.9 2.6 0.00 0.21 0.03 68 1011.4
20260904173012 76 167 0.9 2.6 0.00 0.21 0.03 73 1011.4
20260904171511 74 289 0.0 3.5 0.00 0.21 0.03 72 1011.4
20260904170010 76 329 1.7 3.5 0.00 0.21 0.03 73 1011.5
20260904164508 75 306 0.9 2.6 0.00 0.21 0.03 76 1011.5